Bartlesville, OK

8:27 PM CST on February 24, 2018 (GMT -0600)
Bartlesville Municipal

Weather History for KBVO - December, 2013

Change the Weather History Date:

Friday, December 27, 2013

  Actual Average Record
Temperature  
Mean Temperature 39 °F -  
Max Temperature 57 °F 48 °F 71 °F (2005)
Min Temperature 21 °F 28 °F 6 °F (1962)
Degree Days  
Heating Degree Days 26    
Moisture  
Dew Point 27 °F    
Average Humidity 78    
Maximum Humidity 96    
Minimum Humidity 35    
Precipitation  
Precipitation 0.00 in - - ()
Sea Level Pressure  
Sea Level Pressure 30.35 in    
Wind  
Wind Speed 2 mph (South)    
Max Wind Speed 8 mph    
Max Gust Speed -    
Visibility 10 miles    
Events      
Averages and records for this station are not official NWS values.
T = Trace of Precipitation, MM = Missing Value Source: NWS Daily Summary

Daily Weather History Graph

Daily Weather History Graph

Search for Another Location

Airport or City:

Trip Planner

Search our weather history database for the weather conditions in past years. The results will help you decide how hot, cold, wet, or windy it might be!

Date:

Astronomy

Dec. 27, 2013 Rise Set
Actual Time 7:35 AM CST 5:15 PM CST
Civil Twilight 7:06 AM CST 5:44 PM CST
Nautical Twilight 6:34 AM CST 6:16 PM CST
Astronomical Twilight 6:02 AM CST 6:48 PM CST
Moon 2:13 AM CST (12/27) 1:22 PM CST (12/27)
Length of Visible Light 10h 37m
Length of Day
9h 39m
Waning Crescent, 28% of the Moon is Illuminated
Dec 27
Waning Crescent
Jan 1
New
Jan 7
First Quarter
Jan 15
Full
Jan 23
Last Quarter

Hourly Weather History & Observations

Time (CST) Temp. Windchill Dew Point Humidity Pressure Visibility Wind Dir Wind Speed Gust Speed Precip Events Conditions
12:53 AM 26.1 °F - 24.1 °F 92% 30.36 in 10.0 mi Calm Calm - N/A   Clear
1:53 AM 23.0 °F - 21.9 °F 96% 30.36 in 10.0 mi Calm Calm - N/A   Clear
2:53 AM 23.0 °F - 21.9 °F 96% 30.37 in 10.0 mi Calm Calm - N/A   Clear
3:53 AM 23.0 °F - 21.0 °F 92% 30.37 in 10.0 mi Calm Calm - N/A   Clear
4:53 AM 21.9 °F - 21.0 °F 96% 30.37 in 10.0 mi Calm Calm - N/A   Clear
5:53 AM 21.0 °F - 19.9 °F 96% 30.38 in 10.0 mi Calm Calm - N/A   Clear
6:53 AM 21.0 °F - 19.0 °F 92% 30.39 in 10.0 mi Calm Calm - N/A   Clear
7:53 AM 21.9 °F - 19.9 °F 92% 30.39 in 9.0 mi Calm Calm - N/A   Clear
8:53 AM 30.0 °F 25.2 °F 28.0 °F 92% 30.41 in 8.0 mi South 4.6 mph - N/A   Clear
9:53 AM 37.9 °F 34.4 °F 32.0 °F 79% 30.41 in 10.0 mi SSE 4.6 mph - N/A   Clear
10:53 AM 44.1 °F 41.5 °F 34.0 °F 68% 30.40 in 10.0 mi SE 4.6 mph - N/A   Clear
11:53 AM 48.9 °F - 34.0 °F 56% 30.39 in 10.0 mi SSE 4.6 mph - N/A   Clear
12:53 PM 54.0 °F - 33.1 °F 45% 30.35 in 10.0 mi South 5.8 mph - N/A   Clear
1:53 PM 57.0 °F - 30.9 °F 37% 30.33 in 10.0 mi South 6.9 mph - N/A   Clear
2:53 PM 57.9 °F - 30.9 °F 36% 30.31 in 10.0 mi SSW 8.1 mph - N/A   Clear
3:53 PM 57.9 °F - 30.0 °F 35% 30.31 in 10.0 mi SSW 5.8 mph - N/A   Clear
4:53 PM 54.0 °F - 28.9 °F 38% 30.32 in 10.0 mi SSW 3.5 mph - N/A   Clear
5:53 PM 37.0 °F - 30.9 °F 79% 30.33 in 10.0 mi Calm Calm - N/A   Clear
6:53 PM 33.1 °F - 30.0 °F 89% 30.33 in 10.0 mi Calm Calm - N/A   Clear
7:53 PM 30.0 °F - 28.0 °F 92% 30.32 in 10.0 mi Calm Calm - N/A   Clear
8:53 PM 28.9 °F - 27.0 °F 92% 30.31 in 10.0 mi Calm Calm - N/A   Clear
9:53 PM 28.0 °F 24.2 °F 26.1 °F 92% 30.30 in 10.0 mi South 3.5 mph - N/A   Clear
10:53 PM 27.0 °F 21.6 °F 25.0 °F 92% 30.30 in 10.0 mi South 4.6 mph - N/A   Clear
11:53 PM 26.1 °F - 24.1 °F 92% 30.29 in 10.0 mi Calm Calm - N/A   Clear